sat.trackr.live / text

‹ back to catalog

STARLINK-34202

NORAD 64174 · 2025-113E

PAYLOAD ACTIVE UNKNOWN

§ Identity

Operator
Country
US
Launch date
2025-05-28
Launch site
AFETR
Launch vehicle
Mass (kg)
RCS (m²)

Purposes: comms

External: N2YO · Heavens-Above · Gunter

§ Orbital elements

Epoch: 2026-05-25T03:49:56.839296Z

Period
94.11 min
Inclination
53.1574°
Eccentricity
0.0001501
Mean motion
15.30201957 rev/d
Perigee alt
474.2 km
Apogee alt
476.2 km
Semi-major
6,853.3 km
B*
6.3365e-4
RAAN
95.8936°
Arg perigee
95.4736°
Mean anomaly
264.6436°
Rev number
5,677

§ Raw data

STARLINK-342021 64174U 25113E   26145.15968564  .00018455  00000+0  63365-3 0  99942 64174  53.1574  95.8936 0001501  95.4736 264.6436 15.30201957 56779

JSON: /api/v1/satellites/64174 · /tle

For live sub-satellite position, see the globe view (requires WebGL).

§ Visibility from observer

Set your observer location to see the next 7 days of passes ≥ 10°. The values pass through the URL so the page stays shareable.

No JS? Fill the form by hand. The geolocation button needs JavaScript.